Simultaneous Nadir Overpasses (SNOs) Predictions

Prediction of SNOs between NOAA-21 and FY3D Satellite Orbit:

Table of predicted SNOs for the next 14.0 days since TLE Epoch: 6/1/2024
Index Date (NOAA-21) Time (NOAA-21) Lat,Lon (NOAA-21) SZA (NOAA-21 ) Date (FY3D) Time (FY3D) Lat,Lon (FY3D) SZA (FY3D ) Distance(km) Time Diff (sec)
1 06/08/2024 18:14:15 -81.11, 29.46 117.61 06/08/2024 18:12:59 -81.10, 29.60 117.59 2.44 76
2 06/08/2024 19:55:45 -81.11, 4.09 117.61 06/08/2024 19:54:30 -81.10, 4.12 117.58 0.61 75
3 06/08/2024 20:46:26 81.05, 172.99 62.15 06/08/2024 20:45:18 81.08, 170.10 62.60 50.05 68
4 06/08/2024 21:37:15 -81.11, -21.28 117.62 06/08/2024 21:36:01 -81.10, -21.37 117.57 1.49 74
5 06/08/2024 22:28:00 81.10, 146.12 62.37 06/08/2024 22:26:45 81.10, 146.15 62.41 0.48 75
6 06/08/2024 23:18:45 -81.11, -46.65 117.63 06/08/2024 23:17:31 -81.11, -46.47 117.61 3.23 74
7 06/09/2024 00:09:30 81.10, 120.75 62.36 06/09/2024 00:08:16 81.10, 120.66 62.42 1.47 74
8 06/09/2024 01:00:15 -81.11, -72.02 117.63 06/09/2024 00:59:02 -81.10, -71.95 117.60 1.32 73
9 06/09/2024 01:51:00 81.10, 95.38 62.36 06/09/2024 01:49:46 81.11, 95.56 62.38 3.22 74
10 06/09/2024 02:41:44 -81.11, -97.40 117.64 06/09/2024 02:40:32 -81.10, -97.43 117.59 0.70 72
11 06/09/2024 03:32:29 81.10, 70.01 62.35 06/09/2024 03:31:16 81.11, 70.08 62.38 1.30 73
12 06/09/2024 04:23:14 -81.11,-122.77 117.64 06/09/2024 04:22:03 -81.10,-122.91 117.59 2.58 71
13 06/09/2024 05:13:59 81.10, 44.63 62.35 06/09/2024 05:12:47 81.10, 44.60 62.39 0.67 72
14 06/09/2024 06:04:44 -81.11,-148.14 117.65 06/09/2024 06:03:33 -81.10,-148.01 117.63 2.11 71
15 06/09/2024 06:55:29 81.10, 19.26 62.34 06/09/2024 06:54:18 81.10, 19.11 62.40 2.59 71
16 06/09/2024 07:46:14 -81.11,-173.51 117.66 06/09/2024 07:45:04 -81.10,-173.50 117.62 0.27 70
17 06/09/2024 08:36:59 81.10, -6.11 62.33 06/09/2024 08:35:48 81.11, -5.99 62.36 2.12 71
18 06/09/2024 09:27:44 -81.10, 161.12 117.66 06/09/2024 09:26:35 -81.10, 161.02 117.61 1.77 69
19 06/09/2024 10:18:29 81.10, -31.48 62.33 06/09/2024 10:17:19 81.10, -31.47 62.37 0.29 70
20 06/09/2024 11:09:14 -81.10, 135.75 117.67 06/09/2024 11:08:05 -81.11, 135.92 117.65 2.91 69
21 06/09/2024 11:59:59 81.10, -56.85 62.32 06/09/2024 11:58:50 81.10, -56.95 62.38 1.78 69
22 06/09/2024 12:50:44 -81.10, 110.38 117.67 06/09/2024 12:49:36 -81.10, 110.44 117.64 0.99 68
23 06/09/2024 13:41:29 81.10, -82.22 62.32 06/09/2024 13:40:20 81.11, -82.05 62.34 2.94 69
24 06/09/2024 14:32:14 -81.10, 85.01 117.68 06/09/2024 14:31:07 -81.10, 84.96 117.63 0.95 67
25 06/09/2024 15:22:59 81.10,-107.59 62.31 06/09/2024 15:21:51 81.11,-107.54 62.34 1.03 68
26 06/09/2024 16:13:44 -81.10, 59.64 117.68 06/09/2024 16:12:38 -81.10, 59.47 117.62 2.87 66
27 06/09/2024 17:04:29 81.10,-132.97 62.31 06/09/2024 17:03:22 81.10,-133.02 62.35 0.99 67
28 06/09/2024 17:55:14 -81.10, 34.27 117.69 06/09/2024 17:54:08 -81.10, 34.37 117.66 1.79 66
29 06/09/2024 18:45:59 81.10,-158.34 62.30 06/09/2024 18:44:53 81.10,-158.51 62.36 2.90 66
30 06/09/2024 19:36:44 -81.10, 8.90 117.69 06/09/2024 19:35:39 -81.10, 8.89 117.66 0.15 65
31 06/09/2024 20:27:29 81.10, 176.29 62.30 06/09/2024 20:26:23 81.11, 176.39 62.32 1.84 66
32 06/09/2024 21:18:14 -81.10, -16.47 117.70 06/09/2024 21:17:10 -81.10, -16.59 117.65 2.06 64
33 06/09/2024 22:08:59 81.10, 150.92 62.29 06/09/2024 22:07:54 81.10, 150.91 62.33 0.39 65
34 06/09/2024 22:59:44 -81.10, -41.85 117.70 06/09/2024 22:58:40 -81.11, -41.70 117.69 2.60 64
35 06/09/2024 23:50:29 81.10, 125.55 62.29 06/09/2024 23:49:25 81.10, 125.43 62.34 2.09 64
36 06/10/2024 00:41:14 -81.10, -67.22 117.71 06/10/2024 00:40:11 -81.10, -67.18 117.68 0.67 63
37 06/10/2024 01:31:59 81.10, 100.18 62.28 06/10/2024 01:30:55 81.11, 100.33 62.30 2.66 64
38 06/10/2024 02:22:44 -81.10, -92.59 117.71 06/10/2024 02:21:42 -81.10, -92.66 117.67 1.25 62
39 06/10/2024 03:13:29 81.10, 74.80 62.28 06/10/2024 03:12:26 81.11, 74.84 62.31 0.81 63
40 06/10/2024 04:04:14 -81.10,-117.96 117.72 06/10/2024 04:03:13 -81.10,-118.14 117.66 3.18 61
41 06/10/2024 04:54:59 81.10, 49.43 62.27 06/10/2024 04:53:57 81.10, 49.36 62.32 1.31 62
42 06/10/2024 05:45:44 -81.10,-143.33 117.73 06/10/2024 05:44:43 -81.11,-143.25 117.70 1.48 61
43 06/10/2024 06:36:29 81.10, 24.06 62.27 06/10/2024 06:35:28 81.10, 23.87 62.33 3.21 61
44 06/10/2024 07:27:14 -81.10,-168.70 117.73 06/10/2024 07:26:14 -81.10,-168.73 117.69 0.45 60
45 06/10/2024 08:17:59 81.10, -1.31 62.26 06/10/2024 08:16:58 81.11, -1.23 62.29 1.58 61
46 06/10/2024 09:08:44 -81.10, 165.93 117.74 06/10/2024 09:07:45 -81.10, 165.79 117.68 2.37 59
47 06/10/2024 09:59:29 81.10, -26.68 62.26 06/10/2024 09:58:29 81.10, -26.71 62.29 0.64 60
48 06/10/2024 10:50:14 -81.10, 140.55 117.74 06/10/2024 10:49:15 -81.11, 140.69 117.72 2.30 59
49 06/10/2024 11:40:59 81.10, -52.06 62.25 06/10/2024 11:40:00 81.10, -52.19 62.30 2.41 59
50 06/10/2024 12:31:44 -81.10, 115.18 117.75 06/10/2024 12:30:46 -81.10, 115.20 117.71 0.39 58
51 06/10/2024 13:22:29 81.10, -77.43 62.25 06/10/2024 13:21:30 81.11, -77.30 62.26 2.39 59
52 06/10/2024 14:13:14 -81.10, 89.81 117.75 06/10/2024 14:12:17 -81.10, 89.72 117.71 1.57 57
53 06/10/2024 15:03:59 81.10,-102.80 62.24 06/10/2024 15:03:01 81.11,-102.78 62.27 0.66 58
54 06/10/2024 15:54:44 -81.10, 64.44 117.76 06/10/2024 15:53:47 -81.11, 64.62 117.75 3.11 57
55 06/10/2024 16:45:29 81.10,-128.17 62.24 06/10/2024 16:44:32 81.10,-128.26 62.28 1.63 57
56 06/10/2024 17:36:14 -81.10, 39.07 117.76 06/10/2024 17:35:18 -81.11, 39.14 117.74 1.19 56
57 06/10/2024 18:27:00 81.11,-153.92 62.29 06/10/2024 18:26:03 81.10,-153.75 62.29 3.17 57
58 06/10/2024 19:17:44 -81.10, 13.70 117.77 06/10/2024 19:16:49 -81.10, 13.65 117.73 0.78 55
59 06/10/2024 20:08:29 81.10,-178.92 62.23 06/10/2024 20:07:33 81.11,-178.85 62.25 1.35 56
60 06/10/2024 20:59:14 -81.10, -11.67 117.77 06/10/2024 20:58:20 -81.10, -11.83 117.72 2.69 54
61 06/10/2024 21:49:59 81.10, 155.71 62.22 06/10/2024 21:49:04 81.11, 155.67 62.26 0.92 55
62 06/10/2024 22:40:44 -81.10, -37.05 117.77 06/10/2024 22:39:50 -81.11, -36.93 117.76 2.00 54
63 06/10/2024 23:31:29 81.10, 130.34 62.22 06/10/2024 23:30:35 81.10, 130.18 62.27 2.71 54
64 06/11/2024 00:22:14 -81.10, -62.42 117.78 06/11/2024 00:21:21 -81.10, -62.42 117.75 0.27 53
65 06/11/2024 01:12:59 81.10, 104.97 62.21 06/11/2024 01:12:05 81.11, 105.08 62.23 2.13 54
66 06/11/2024 02:03:44 -81.10, -87.79 117.78 06/11/2024 02:02:52 -81.10, -87.90 117.74 1.89 52
67 06/11/2024 02:54:29 81.10, 79.59 62.21 06/11/2024 02:53:36 81.11, 79.60 62.24 0.64 53
68 06/11/2024 03:45:14 -81.10,-113.16 117.79 06/11/2024 03:44:22 -81.11,-113.00 117.78 2.81 52
69 06/11/2024 04:35:59 81.10, 54.22 62.20 06/11/2024 04:35:07 81.10, 54.11 62.25 1.94 52
70 06/11/2024 05:26:43 -81.10,-138.53 117.79 06/11/2024 05:25:52 -81.11,-138.49 117.77 0.92 51
71 06/11/2024 06:17:29 81.11, 28.47 62.26 06/11/2024 06:16:37 81.10, 28.63 62.26 2.86 52
72 06/11/2024 07:08:13 -81.10,-163.91 117.80 06/11/2024 07:07:23 -81.10,-163.97 117.76 1.12 50
73 06/11/2024 07:58:58 81.10, 3.48 62.19 06/11/2024 07:58:07 81.11, 3.53 62.22 1.15 51
74 06/11/2024 08:49:43 -81.10, 170.72 117.80 06/11/2024 08:48:54 -81.10, 170.55 117.75 3.01 49
75 06/11/2024 09:40:28 81.10, -21.90 62.19 06/11/2024 09:39:38 81.11, -21.96 62.23 1.21 50
76 06/11/2024 10:31:13 -81.10, 145.35 117.81 06/11/2024 10:30:24 -81.11, 145.45 117.79 1.71 49
77 06/11/2024 11:21:58 81.10, -47.27 62.19 06/11/2024 11:21:09 81.10, -47.44 62.24 3.02 49
78 06/11/2024 12:12:43 -81.10, 119.98 117.81 06/11/2024 12:11:55 -81.10, 119.96 117.78 0.46 48
79 06/11/2024 13:03:29 81.11, -73.02 62.24 06/11/2024 13:02:40 81.10, -72.93 62.25 1.89 49
80 06/11/2024 13:54:13 -81.10, 94.61 117.82 06/11/2024 13:53:26 -81.10, 94.48 117.77 2.22 47
81 06/11/2024 14:44:58 81.10, -98.01 62.18 06/11/2024 14:44:10 81.11, -98.03 62.21 0.74 48
82 06/11/2024 15:35:43 -81.10, 69.23 117.82 06/11/2024 15:34:56 -81.11, 69.38 117.81 2.51 47
83 06/11/2024 16:26:28 81.10,-123.39 62.17 06/11/2024 16:25:41 81.10,-123.51 62.22 2.24 47
84 06/11/2024 17:17:13 -81.10, 43.86 117.82 06/11/2024 17:16:27 -81.11, 43.89 117.80 0.69 46
85 06/11/2024 18:07:59 81.11,-149.14 62.23 06/11/2024 18:07:12 81.10,-149.00 62.23 2.57 47
86 06/11/2024 18:58:43 -81.10, 18.49 117.83 06/11/2024 18:57:58 -81.10, 18.41 117.79 1.45 45
87 06/11/2024 19:49:28 81.10,-174.13 62.16 06/11/2024 19:48:42 81.11,-174.10 62.19 0.99 46
88 06/11/2024 20:40:13 -81.10, -6.88 117.83 06/11/2024 20:39:28 -81.11, -6.69 117.83 3.32 45
89 06/11/2024 21:30:58 81.10, 160.49 62.16 06/11/2024 21:30:13 81.11, 160.42 62.20 1.50 45
90 06/11/2024 22:21:43 -81.10, -32.26 117.84 06/11/2024 22:20:59 -81.11, -32.18 117.82 1.43 44
91 06/11/2024 23:12:29 81.11, 134.74 62.21 06/11/2024 23:11:44 81.10, 134.93 62.21 3.31 45
92 06/12/2024 00:03:13 -81.10, -57.63 117.84 06/12/2024 00:02:30 -81.11, -57.66 117.81 0.75 43
93 06/12/2024 00:53:59 81.11, 109.37 62.21 06/12/2024 00:53:15 81.10, 109.45 62.22 1.62 44
94 06/12/2024 01:44:43 -81.10, -83.00 117.84 06/12/2024 01:44:01 -81.10, -83.15 117.80 2.55 42
95 06/12/2024 02:35:28 81.10, 84.37 62.15 06/12/2024 02:34:45 81.11, 84.34 62.18 0.93 43
96 06/12/2024 03:26:13 -81.10,-108.37 117.85 06/12/2024 03:25:31 -81.11,-108.25 117.84 2.22 42
97 06/12/2024 04:16:58 81.10, 59.00 62.14 06/12/2024 04:16:16 81.10, 58.86 62.19 2.53 42
98 06/12/2024 05:07:43 -81.10,-133.75 117.85 06/12/2024 05:07:02 -81.11,-133.73 117.83 0.57 41
99 06/12/2024 05:58:29 81.11, 33.25 62.20 06/12/2024 05:57:47 81.10, 33.37 62.20 2.28 42
100 06/12/2024 06:49:13 -81.10,-159.12 117.86 06/12/2024 06:48:33 -81.10,-159.22 117.82 1.77 40
101 06/12/2024 07:39:58 81.10, 8.26 62.14 06/12/2024 07:39:17 81.11, 8.27 62.16 0.90 41
102 06/12/2024 08:30:44 -81.11, 175.13 117.80 06/12/2024 08:30:04 -81.10, 175.30 117.81 3.01 40
103 06/12/2024 09:21:28 81.10, -17.12 62.13 06/12/2024 09:20:48 81.11, -17.21 62.17 1.79 40
104 06/12/2024 10:12:13 -81.10, 150.14 117.86 06/12/2024 10:11:34 -81.11, 150.19 117.85 1.18 39
105 06/12/2024 11:02:59 81.11, -42.87 62.19 06/12/2024 11:02:19 81.10, -42.70 62.18 3.02 40
106 06/12/2024 11:53:43 -81.10, 124.76 117.87 06/12/2024 11:53:05 -81.11, 124.71 117.84 1.05 38
107 06/12/2024 12:44:29 81.11, -68.24 62.18 06/12/2024 12:43:50 81.10, -68.18 62.19 1.36 39
108 06/12/2024 13:35:13 -81.10, 99.39 117.87 06/12/2024 13:34:36 -81.10, 99.23 117.83 2.87 37
109 06/12/2024 14:25:58 81.10, -93.24 62.12 06/12/2024 14:25:20 81.11, -93.29 62.15 1.15 38
110 06/12/2024 15:16:43 -81.10, 74.02 117.88 06/12/2024 15:16:06 -81.11, 74.12 117.87 1.94 37
111 06/12/2024 16:07:28 81.10,-118.61 62.12 06/12/2024 16:06:51 81.10,-118.77 62.16 2.82 37
112 06/12/2024 16:58:13 -81.10, 48.65 117.88 06/12/2024 16:57:37 -81.11, 48.64 117.86 0.61 36
113 06/12/2024 17:48:59 81.11,-144.36 62.17 06/12/2024 17:48:22 81.10,-144.26 62.17 2.00 37
114 06/12/2024 18:39:43 -81.10, 23.27 117.88 06/12/2024 18:39:08 -81.10, 23.15 117.85 2.10 35
115 06/12/2024 19:30:28 81.10,-169.36 62.11 06/12/2024 19:29:52 81.11,-169.36 62.14 0.89 36
116 06/12/2024 20:21:14 -81.11, -2.48 117.83 06/12/2024 20:20:39 -81.10, -2.33 117.84 2.69 35
117 06/12/2024 21:11:58 81.10, 165.27 62.11 06/12/2024 21:11:23 81.11, 165.16 62.15 2.07 35
118 06/12/2024 22:02:43 -81.10, -27.47 117.89 06/12/2024 22:02:09 -81.11, -27.43 117.87 0.97 34
119 06/12/2024 22:53:29 81.11, 139.52 62.16 06/12/2024 22:52:54 81.10, 139.67 62.16 2.73 35
120 06/12/2024 23:44:13 -81.10, -52.85 117.89 06/12/2024 23:43:40 -81.11, -52.92 117.86 1.37 33
121 06/13/2024 00:34:59 81.11, 114.14 62.16 06/13/2024 00:34:25 81.10, 114.18 62.17 1.15 34
122 06/13/2024 01:25:43 -81.10, -78.22 117.90 06/13/2024 01:25:11 -81.10, -78.40 117.85 3.20 32
123 06/13/2024 02:16:28 81.10, 89.15 62.10 06/13/2024 02:15:55 81.11, 89.08 62.13 1.39 33
124 06/13/2024 03:07:13 -81.10,-103.59 117.90 06/13/2024 03:06:41 -81.11,-103.51 117.89 1.67 32
125 06/13/2024 03:57:58 81.10, 63.77 62.09 06/13/2024 03:57:26 81.10, 63.60 62.14 3.11 32
126 06/13/2024 04:48:43 -81.10,-128.97 117.90 06/13/2024 04:48:12 -81.11,-128.99 117.88 0.79 31
127 06/13/2024 05:39:29 81.11, 38.02 62.15 06/13/2024 05:38:57 81.10, 38.11 62.15 1.73 32
128 06/13/2024 06:30:13 -81.10,-154.34 117.91 06/13/2024 06:29:43 -81.10,-154.48 117.87 2.43 30
129 06/13/2024 07:20:58 81.10, 13.03 62.09 06/13/2024 07:20:27 81.11, 13.01 62.11 0.97 31
130 06/13/2024 08:11:44 -81.11, 179.91 117.86 06/13/2024 08:11:14 -81.10,-179.96 117.86 2.37 30
131 06/13/2024 09:02:27 81.10, -12.35 62.08 06/13/2024 09:01:57 81.11, -12.48 62.12 2.34 30
132 06/13/2024 09:53:12 -81.10, 154.91 117.91 06/13/2024 09:52:43 -81.11, 154.93 117.90 0.82 29
133 06/13/2024 10:43:58 81.11, -38.10 62.14 06/13/2024 10:43:28 81.10, -37.96 62.13 2.45 30
134 06/13/2024 11:34:42 -81.10, 129.54 117.92 06/13/2024 11:34:14 -81.11, 129.45 117.89 1.68 28
135 06/13/2024 12:25:28 81.11, -63.47 62.13 06/13/2024 12:24:59 81.10, -63.45 62.14 0.98 29
136 06/13/2024 13:16:13 -81.11, 103.79 117.87 06/13/2024 13:15:45 -81.10, 103.96 117.88 3.09 28
137 06/13/2024 14:06:57 81.10, -88.47 62.07 06/13/2024 14:06:29 81.11, -88.55 62.11 1.63 28
138 06/13/2024 14:57:42 -81.10, 78.79 117.92 06/13/2024 14:57:15 -81.11, 78.86 117.91 1.42 27
139 06/13/2024 15:48:28 81.11,-114.22 62.13 06/13/2024 15:48:00 81.10,-114.04 62.12 3.23 28
140 06/13/2024 16:39:12 -81.10, 53.42 117.93 06/13/2024 16:38:46 -81.11, 53.38 117.90 1.03 26
141 06/13/2024 17:29:58 81.11,-139.60 62.12 06/13/2024 17:29:31 81.10,-139.52 62.13 1.47 27
142 06/13/2024 18:20:42 -81.10, 28.05 117.93 06/13/2024 18:20:17 -81.10, 27.89 117.89 2.75 25
143 06/13/2024 19:11:27 81.10,-164.59 62.07 06/13/2024 19:11:01 81.11,-164.63 62.09 1.10 26
144 06/13/2024 20:02:13 -81.11, 2.30 117.88 06/13/2024 20:01:48 -81.10, 2.41 117.88 2.07 25
145 06/13/2024 20:52:57 81.10, 170.03 62.06 06/13/2024 20:52:32 81.11, 169.89 62.10 2.62 25
146 06/13/2024 21:43:42 -81.10, -22.70 117.94 06/13/2024 21:43:18 -81.11, -22.70 117.92 0.77 24
147 06/13/2024 22:34:28 81.11, 144.28 62.12 06/13/2024 22:34:03 81.10, 144.40 62.11 2.18 25
148 06/13/2024 23:25:12 -81.10, -48.07 117.94 06/13/2024 23:24:49 -81.11, -48.18 117.91 2.00 23
149 06/14/2024 00:15:58 81.11, 118.91 62.11 06/14/2024 00:15:34 81.10, 118.92 62.12 0.88 24
150 06/14/2024 01:06:43 -81.11, -73.82 117.89 06/14/2024 01:06:20 -81.10, -73.67 117.90 2.77 23
151 06/14/2024 01:57:27 81.10, 93.91 62.05 06/14/2024 01:57:04 81.11, 93.81 62.08 1.88 23
152 06/14/2024 02:48:12 -81.10, -98.82 117.95 06/14/2024 02:47:50 -81.11, -98.77 117.94 1.19 22
153 06/14/2024 03:38:58 81.11, 68.16 62.11 06/14/2024 03:38:35 81.10, 68.33 62.09 2.95 23
154 06/14/2024 04:29:42 -81.10,-124.19 117.95 06/14/2024 04:29:21 -81.11,-124.26 117.93 1.31 21
155 06/14/2024 05:20:28 81.11, 42.78 62.10 06/14/2024 05:20:06 81.10, 42.84 62.11 1.24 22
156 06/14/2024 06:11:12 -81.10,-149.57 117.95 06/14/2024 06:10:52 -81.10,-149.74 117.91 3.07 20
157 06/14/2024 07:01:57 81.10, 17.79 62.05 06/14/2024 07:01:36 81.11, 17.74 62.07 1.27 21
158 06/14/2024 07:52:43 -81.11,-175.32 117.90 06/14/2024 07:52:23 -81.10,-175.23 117.90 1.77 20
159 06/14/2024 08:43:27 81.10, -7.59 62.04 06/14/2024 08:43:07 81.11, -7.75 62.08 2.88 20
160 06/14/2024 09:34:12 -81.10, 159.68 117.96 06/14/2024 09:33:53 -81.11, 159.67 117.94 0.85 19
161 06/14/2024 10:24:58 81.11, -33.34 62.10 06/14/2024 10:24:38 81.10, -33.24 62.09 1.92 20
162 06/14/2024 11:15:42 -81.10, 134.31 117.96 06/14/2024 11:15:24 -81.11, 134.18 117.93 2.31 18
163 06/14/2024 12:06:28 81.11, -58.71 62.09 06/14/2024 12:06:09 81.10, -58.72 62.10 0.88 19
164 06/14/2024 12:57:13 -81.11, 108.56 117.91 06/14/2024 12:56:55 -81.10, 108.69 117.92 2.46 18
165 06/14/2024 13:47:57 81.10, -83.71 62.03 06/14/2024 13:47:39 81.11, -83.83 62.06 2.13 18
166 06/14/2024 14:38:42 -81.10, 83.56 117.97 06/14/2024 14:38:25 -81.11, 83.59 117.96 1.01 17
167 06/14/2024 15:29:28 81.11,-109.46 62.09 06/14/2024 15:29:10 81.10,-109.31 62.08 2.68 18
168 06/14/2024 16:20:12 -81.10, 58.19 117.97 06/14/2024 16:19:56 -81.11, 58.10 117.94 1.59 16
169 06/14/2024 17:10:58 81.11,-134.84 62.09 06/14/2024 17:10:41 81.10,-134.80 62.09 1.04 17
170 06/14/2024 18:01:43 -81.11, 32.44 117.91 06/14/2024 18:01:27 -81.10, 32.62 117.93 3.20 16
171 06/14/2024 18:52:27 81.10,-159.84 62.03 06/14/2024 18:52:11 81.11,-159.90 62.05 1.47 16
172 06/14/2024 19:43:13 -81.11, 7.06 117.92 06/14/2024 19:42:58 -81.10, 7.13 117.92 1.50 15
173 06/14/2024 20:33:57 81.10, 174.79 62.03 06/14/2024 20:33:42 81.11, 174.61 62.06 3.15 15
174 06/14/2024 21:24:42 -81.10, -17.94 117.98 06/14/2024 21:24:28 -81.11, -17.97 117.96 1.02 14
175 06/14/2024 22:15:28 81.11, 149.04 62.08 06/14/2024 22:15:13 81.10, 149.13 62.07 1.67 15
176 06/14/2024 23:06:12 -81.10, -43.31 117.98 06/14/2024 23:05:59 -81.11, -43.46 117.95 2.63 13
177 06/14/2024 23:56:58 81.11, 123.66 62.08 06/14/2024 23:56:44 81.10, 123.64 62.08 0.97 14
178 06/15/2024 00:47:43 -81.11, -69.06 117.92 06/15/2024 00:47:30 -81.10, -68.94 117.94 2.16 13
179 06/15/2024 01:38:27 81.10, 98.66 62.02 06/15/2024 01:38:14 81.11, 98.53 62.05 2.38 13
180 06/15/2024 02:29:12 -81.10, -94.06 117.98 06/15/2024 02:29:00 -81.11, -94.05 117.97 0.90 12



Historial Predications of SNOs between NOAA-21 and FY3D
